Location: Newark
(44.9333°N, 0.5667°E)
Time: 12:48:44
(UTC+00:00)

FALCONSAT 3 - Visible Passes

Search period start: 18 February 2020 00:00
Search period end: 28 February 2020 00:00
Orbit: 452 x 456 km, 35.4° (Epoch: 17 February)

Date Brightness Start Highest point End Pass type
(mag) Time Alt. Az. Time Alt. Az. Time Alt. Az.
18 Feb ? 18:27:05 10° SW 18:29:31 17° S 18:31:57 10° SE visible
20 Feb ? 18:51:35 10° SSW 18:52:25 11° SSW 18:53:14 10° S visible
21 Feb ? 18:13:34 10° SW 18:14:49 11° SSW 18:16:06 10° S visible
